#timestamp,LO_Frequency,Hit,StdDev 
1623661215.3,286046998.5,N
1623661235.1,286047000.1,N
1623661255.9,286046999.7,N
1623661275.7,286047000.2,N
1623661295.5,286047000.7,N
1623661315.4,286047000.7,N
1623661335.2,286046998.3,N
1623661355.0,286046998.3,N
1623661355.9,286046998.3,N
1623661375.8,286046999.3,N
1623661395.6,286046998.7,N
1623661415.5,286046996.5,Y
1623661435.3,286046998.4,P
1623661455.1,286047000.8,N
1623661475.9,286047000.3,N
1623661495.7,286047000.8,N
1623661515.6,286046998.7,N
1623661535.4,286046998.8,N
1623661555.2,286047000.4,N
1623661575.1,286047001.1,N
1623661576.0,286047001.1,N
1623661595.8,286046998.5,N
1623661615.6,286046998.8,N
1623661635.5,286046999.6,N
1623661655.3,286046997.1,N
1623661675.2,286046998.0,N
1623661695.9,286046997.8,N
1623661715.7,286046999.5,N
1623661735.6,286046997.8,N
1623661755.4,286046996.6,N
1623661775.2,286046995.3,Y
1623661795.1,286046997.3,P
1623661796.0,286046997.3,N
1623661815.8,286046997.9,N
1623661835.7,286046995.1,Y
1623661855.5,286046996.5,P
1623661875.3,286046999.3,N
1623661895.2,286046998.9,N
1623661915.0,286047000.8,N
1623661915.9,286047000.8,N
1623661935.8,286047000.1,N
1623661955.6,286047001.2,N
1623661975.4,286046998.1,N
1623661995.3,286046998.9,N
1623662015.1,286046997.2,N
1623662035.9,286046997.0,N
1623662055.7,286046994.9,Y
1623662075.5,286046999.6,P
1623662095.4,286046997.2,P
1623662115.2,286046997.3,N
1623662135.1,286046994.9,Y
1623662136.0,286046994.9,P
1623662155.8,286046999.2,N
1623662175.6,286046999.2,N
1623662195.5,286046999.6,N
1623662215.3,286046997.3,N
1623662235.1,286046997.3,N
1623662255.9,286046997.4,N
1623662275.7,286046999.1,N
1623662295.6,286046999.2,N
1623662315.4,286046996.8,N
1623662335.2,286046996.5,N
1623662355.1,286046999.6,N
1623662356.0,286046999.6,N
1623662375.8,286046996.9,N
1623662395.7,286046999.1,N
1623662415.5,286046999.5,N
1623662435.3,286046997.2,N
1623662455.2,286046997.9,N
1623662475.0,286046993.8,Y
1623662475.9,286046993.8,P
1623662495.8,286046995.3,N
1623662515.6,286046998.0,N
1623662535.4,286046995.0,N
1623662555.3,286046995.8,N
1623662575.1,286046996.6,N
1623662595.8,286046998.3,N
1623662615.7,286047000.3,N
1623662635.5,286047000.7,N
1623662655.4,286047002.8,N
1623662675.2,286047000.0,N
1623662695.0,286047002.4,N
1623662695.9,286047002.4,N
1623662715.8,286047000.5,N
1623662735.6,286047002.4,N
1623662755.4,286047002.4,N
1623662775.3,286047001.7,N
1623662795.1,286047004.0,N
1623662815.9,286047002.6,N
1623662835.7,286047000.4,N
1623662855.5,286046999.8,N
1623662875.4,286047000.6,N
1623662895.2,286047002.8,N
1623662915.0,286046999.7,N
1623662915.9,286046999.7,N
1623662935.8,286047002.2,N
1623662955.6,286047002.1,N
1623662975.5,286047002.4,N
1623662995.3,286047002.5,N
1623663015.1,286047000.2,N
1623663035.9,286047002.8,N
1623663055.7,286047000.2,N
1623663075.5,286047002.8,N
1623663095.4,286047002.1,N
1623663115.2,286047002.0,N
1623663135.1,286047002.3,N
1623663136.0,286047002.3,N
1623663155.8,286047002.5,N
1623663175.6,286047002.2,N
1623663195.5,286047000.5,N
1623663215.3,286047000.8,N
1623663235.1,286046998.9,N
1623663255.9,286046996.5,N
1623663275.7,286047000.8,N
1623663295.6,286047000.6,N
1623663315.4,286047000.2,N
1623663335.2,286047001.8,N
1623663355.1,286047001.6,N
1623663356.0,286047001.6,N
1623663375.8,286047001.6,N
1623663395.6,286047000.1,N
1623663415.5,286047002.6,N
1623663435.3,286047002.4,N
1623663455.2,286046999.8,N
1623663475.9,286047000.5,N
1623663495.7,286047000.3,N
1623663515.6,286047000.6,N
1623663535.4,286047002.2,N
1623663555.2,286047000.1,N
1623663575.1,286047002.5,N
1623663576.0,286047002.5,N
1623663595.8,286047003.8,N
1623663615.7,286047002.2,N
1623663635.5,286046999.9,N
1623663655.3,286047002.1,N
1623663675.2,286047004.0,N
1623663695.0,286047003.1,N
1623663695.9,286047003.1,N
1623663715.8,286047004.0,N
1623663735.6,286047005.6,Y
1623663755.4,286047002.2,P
1623663775.3,286047004.4,P
1623663795.1,286047001.7,N
1623663815.9,286047001.3,N
1623663835.7,286047003.9,Y
1623663855.5,286046998.7,P
1623663875.4,286046998.1,N
1623663895.2,286046999.0,N
1623663915.0,286046998.3,N
1623663915.9,286046998.3,N
1623663935.8,286047002.0,N
1623663955.6,286047003.5,N
1623663975.5,286047002.2,N
1623663995.3,286047002.6,N
1623664015.1,286047001.6,N
1623664035.9,286047002.8,N
1623664055.7,286047001.3,N
1623664075.5,286046999.9,N
1623664095.4,286046998.1,N
1623664115.2,286046997.0,N
1623664135.1,286046997.1,N
1623664136.0,286046997.1,N
1623664155.8,286046998.6,N
1623664175.6,286047000.3,N
1623664195.5,286047002.2,N
1623664215.3,286047002.8,N
1623664235.1,286047002.3,N
1623664255.9,286047002.8,N
1623664275.7,286047000.7,N
1623664295.6,286046999.4,N
1623664315.4,286047000.2,N
1623664335.2,286047001.3,N
1623664355.1,286047003.9,N
1623664356.0,286047003.9,N
1623664375.8,286047002.1,N
1623664395.7,286047001.7,N
1623664415.5,286047001.6,N
1623664435.3,286047000.6,N
1623664455.2,286047001.4,N
1623664475.9,286047002.3,N
1623664495.7,286047002.6,N
1623664515.6,286047001.8,N
1623664535.4,286047002.2,N
1623664555.2,286047002.1,N
1623664575.1,286046999.7,N
1623664576.0,286046999.7,N
1623664595.8,286047002.7,N
1623664615.7,286047004.0,N
1623664635.5,286047003.5,N
1623664655.3,286047003.2,N
1623664675.2,286047004.1,N
1623664695.0,286047006.0,Y
1623664695.9,286047006.0,P
1623664715.8,286047004.3,N
1623664735.6,286047001.9,N
1623664755.4,286047002.2,N
1623664775.3,286047001.5,N
1623664795.1,286047001.2,N
